Location: Bamobli
(6.6379°N, 10.9396°W)
Time: 14:03:45
(UTC+00:00)

Cosmos 1933 Rocket - Pass Details

Date: 07 June 2020
Orbit: 605 x 631 km, 82.5° (Epoch: 04 July)

Event Time Altitude Azimuth Distance (km) Brightness Sun altitude
Rises 05:50:09 0° 178° (S) 2,915 6.8 -9.4°
Reaches altitude 10° 05:52:25 10° 175° (S) 2,006 6.0 -8.9°
Maximum altitude 05:56:49 65° 94° (E) 690 4.1 -7.9°
Drops below altitude 10° 06:01:12 10° 12° (NNE) 1,994 6.7 -6.9°
Sets 06:03:26 0° 9° (N) 2,896 7.5 -6.4°
